ETH806 HRYR-HAAB

Flight info

Callsign ETH806
Flight time N/A
Altitude 39000
Route ALSAR1D ALSAR UL432 EKBUL EKBUL2A
Aircraft B737/M-SDE2E3FGHIRWXY/LB1

Departure

Time 2026-04-22 16:39
Airport Kigali International Airport (HRYR)

Arrival

Time N/A
Airport Addis Ababa Bole International Airport (HAAB)
Time Latitude Longitude Altitude Speed Heading
2026-04-22 16:16 -1.96446 30.13547 4885 ft 0 kts 11°
2026-04-22 16:29 -1.96455 30.13545 4882 ft 4 kts 11°
2026-04-22 16:30 -1.96473 30.13542 4883 ft 4 kts
2026-04-22 16:30 -1.96500 30.13540 4880 ft 2 kts 335°
2026-04-22 16:30 -1.96508 30.13548 4880 ft 2 kts 291°
2026-04-22 16:30 -1.96512 30.13559 4880 ft 2 kts 279°
2026-04-22 16:31 -1.96513 30.13570 4881 ft 2 kts 276°
2026-04-22 16:31 -1.96513 30.13574 4882 ft 0 kts 275°
2026-04-22 16:33 -1.96513 30.13572 4881 ft 1 kts 275°
2026-04-22 16:33 -1.96515 30.13560 4879 ft 3 kts 253°
2026-04-22 16:34 -1.96531 30.13533 4888 ft 6 kts 233°
2026-04-22 16:34 -1.96572 30.13502 4886 ft 9 kts 206°
2026-04-22 16:34 -1.96606 30.13451 4881 ft 10 kts 264°
2026-04-22 16:34 -1.96622 30.13381 4882 ft 11 kts 218°
2026-04-22 16:35 -1.96685 30.13360 4886 ft 9 kts 193°
2026-04-22 16:35 -1.96737 30.13318 4886 ft 11 kts 256°
2026-04-22 16:35 -1.96736 30.13236 4885 ft 13 kts 268°
2026-04-22 16:35 -1.96724 30.13138 4885 ft 15 kts 279°
2026-04-22 16:36 -1.96706 30.13026 4885 ft 18 kts 281°
2026-04-22 16:36 -1.96686 30.12891 4883 ft 21 kts 276°
2026-04-22 16:36 -1.96659 30.12738 4881 ft 23 kts 279°
2026-04-22 16:36 -1.96630 30.12580 4881 ft 23 kts 281°
2026-04-22 16:37 -1.96618 30.12515 4881 ft 7 kts 278°
2026-04-22 16:37 -1.96632 30.12469 4884 ft 7 kts 243°
2026-04-22 16:37 -1.96646 30.12423 4885 ft 7 kts 262°
2026-04-22 16:37 -1.96602 30.12415 4883 ft 7 kts 61°
2026-04-22 16:38 -1.96600 30.12435 4880 ft 0 kts 94°
2026-04-22 16:38 -1.96600 30.12436 4880 ft 0 kts 94°
2026-04-22 16:39 -1.96630 30.12665 4883 ft 75 kts 101°
2026-04-22 16:39 -1.96768 30.13421 4884 ft 143 kts 102°
2026-04-22 16:39 -1.97022 30.14522 5230 ft 171 kts 105°
2026-04-22 16:39 -1.97187 30.15642 6291 ft 156 kts 89°
2026-04-22 16:40 -1.97272 30.16717 7005 ft 162 kts 104°
2026-04-22 16:40 -1.97540 30.17936 7338 ft 197 kts 101°
2026-04-22 16:40 -1.98044 30.20967 8187 ft 237 kts 91°
2026-04-22 16:41 -1.97572 30.22607 8676 ft 255 kts 59°
2026-04-22 16:41 -1.96436 30.23996 9443 ft 262 kts 49°
2026-04-22 16:41 -1.95163 30.25271 10168 ft 271 kts 46°
2026-04-22 16:41 -1.93703 30.26673 10444 ft 302 kts 46°
2026-04-22 16:42 -1.92137 30.28177 10810 ft 326 kts 46°
2026-04-22 16:42 -1.90467 30.29788 11386 ft 341 kts 46°
2026-04-22 16:42 -1.88743 30.31461 12198 ft 345 kts 46°
2026-04-22 16:42 -1.87043 30.33117 13429 ft 337 kts 46°
2026-04-22 16:43 -1.85364 30.34760 14379 ft 337 kts 47°
2026-04-22 16:43 -1.83673 30.36424 15085 ft 344 kts 47°
2026-04-22 16:43 -1.81956 30.38117 15763 ft 350 kts 47°
2026-04-22 16:43 -1.80232 30.39818 16456 ft 355 kts 46°
2026-04-22 16:44 -1.78456 30.41571 17188 ft 358 kts 46°
2026-04-22 16:44 -1.76671 30.43334 17887 ft 363 kts 46°
2026-04-22 16:44 -1.74880 30.45102 18507 ft 368 kts 46°
2026-04-22 16:44 -1.73043 30.46915 19120 ft 371 kts 46°
2026-04-22 16:45 -1.71189 30.48746 19717 ft 375 kts 46°
2026-04-22 16:45 -1.69316 30.50594 20292 ft 379 kts 46°
2026-04-22 16:45 -1.67428 30.52458 20854 ft 383 kts 46°
2026-04-22 16:45 -1.65536 30.54326 21402 ft 387 kts 46°
2026-04-22 16:46 -1.63606 30.56231 21948 ft 391 kts 46°
2026-04-22 16:46 -1.61657 30.58155 22492 ft 395 kts 46°
2026-04-22 16:46 -1.59688 30.60099 23016 ft 399 kts 46°
2026-04-22 16:46 -1.57727 30.62034 23522 ft 403 kts 46°
2026-04-22 16:47 -1.55722 30.64013 23941 ft 406 kts 46°
2026-04-22 16:47 -1.53700 30.66009 24366 ft 409 kts 46°
2026-04-22 16:47 -1.51671 30.68013 24802 ft 411 kts 46°
2026-04-22 16:47 -1.49625 30.70032 25220 ft 414 kts 46°
2026-04-22 16:48 -1.47566 30.72064 25621 ft 418 kts 46°
2026-04-22 16:48 -1.45494 30.74108 26025 ft 420 kts 46°
2026-04-22 16:48 -1.43436 30.76201 26416 ft 423 kts 48°
2026-04-22 16:48 -1.41430 30.78363 26786 ft 426 kts 49°
2026-04-22 16:49 -1.39425 30.80574 27118 ft 430 kts 49°
2026-04-22 16:49 -1.37414 30.82803 27451 ft 434 kts 49°
2026-04-22 16:49 -1.35403 30.85023 27783 ft 437 kts 49°
2026-04-22 16:49 -1.33346 30.87283 28056 ft 442 kts 49°
2026-04-22 16:50 -1.31259 30.89566 28358 ft 445 kts 49°
2026-04-22 16:50 -1.29158 30.91857 28697 ft 447 kts 49°
2026-04-22 16:50 -1.27047 30.94156 29025 ft 449 kts 49°
2026-04-22 16:50 -1.24924 30.96466 29378 ft 451 kts 49°
2026-04-22 16:51 -1.22796 30.98781 29727 ft 452 kts 49°
2026-04-22 16:51 -1.20667 31.01098 30044 ft 454 kts 49°
2026-04-22 16:51 -1.18547 31.03406 30297 ft 456 kts 49°
2026-04-22 16:51 -1.16393 31.05751 30555 ft 458 kts 49°
2026-04-22 16:52 -1.14234 31.08101 30824 ft 459 kts 49°
2026-04-22 16:52 -1.12062 31.10466 31053 ft 461 kts 49°
2026-04-22 16:52 -1.09912 31.12806 31307 ft 463 kts 49°
2026-04-22 16:52 -1.07731 31.15180 31586 ft 463 kts 49°
2026-04-22 16:53 -1.05546 31.17559 31835 ft 465 kts 49°
2026-04-22 16:53 -1.03354 31.19947 32064 ft 466 kts 48°
2026-04-22 16:53 -1.01152 31.22344 32268 ft 469 kts 48°
2026-04-22 16:53 -0.98946 31.24767 32467 ft 471 kts 49°
2026-04-22 16:54 -0.96829 31.27228 32653 ft 473 kts 51°
2026-04-22 16:54 -0.94720 31.29765 32874 ft 474 kts 51°
2026-04-22 16:54 -0.92624 31.32310 33147 ft 474 kts 51°
2026-04-22 16:54 -0.90526 31.34854 33468 ft 473 kts 51°
2026-04-22 16:55 -0.88424 31.37385 33797 ft 472 kts 51°
2026-04-22 16:55 -0.86322 31.39904 34082 ft 472 kts 51°
2026-04-22 16:55 -0.84237 31.42394 34345 ft 472 kts 51°
2026-04-22 16:55 -0.82128 31.44907 34639 ft 471 kts 50°
2026-04-22 16:56 -0.80017 31.47422 34927 ft 470 kts 50°
2026-04-22 16:56 -0.77904 31.49939 35213 ft 470 kts 50°
2026-04-22 16:56 -0.75830 31.52411 35494 ft 470 kts 50°
2026-04-22 16:56 -0.73735 31.54909 35762 ft 470 kts 51°
2026-04-22 16:57 -0.71632 31.57417 36034 ft 469 kts 51°
2026-04-22 16:57 -0.69531 31.59922 36292 ft 469 kts 50°
2026-04-22 16:57 -0.67437 31.62419 36561 ft 469 kts 50°
2026-04-22 16:57 -0.65321 31.64912 36802 ft 469 kts 49°
2026-04-22 16:58 -0.63899 31.66529 36957 ft 468 kts 49°
2026-04-22 16:58 -0.61006 31.69750 37299 ft 468 kts 48°
2026-04-22 16:58 -0.58825 31.72158 37547 ft 467 kts 48°
2026-04-22 16:58 -0.56638 31.74574 37775 ft 467 kts 48°
2026-04-22 16:59 -0.54456 31.76994 37981 ft 468 kts 48°
2026-04-22 16:59 -0.52284 31.79413 38194 ft 468 kts 49°
2026-04-22 16:59 -0.50134 31.81812 38423 ft 467 kts 48°
2026-04-22 16:59 -0.47966 31.84235 38624 ft 467 kts 48°
2026-04-22 17:00 -0.45802 31.86656 38810 ft 467 kts 48°
2026-04-22 17:00 -0.39282 31.93948 38816 ft 467 kts 48°
2026-04-22 17:01 -0.34992 31.98746 38821 ft 465 kts 48°
2026-04-22 17:01 -0.30682 32.03565 38809 ft 464 kts 48°
2026-04-22 17:02 -0.26402 32.08350 38818 ft 463 kts 48°
2026-04-22 17:02 -0.22107 32.13152 38819 ft 463 kts 48°
2026-04-22 17:03 -0.17830 32.17934 38823 ft 463 kts 48°
2026-04-22 17:03 -0.13536 32.22735 38841 ft 463 kts 48°
2026-04-22 17:04 -0.09235 32.27545 38869 ft 463 kts 48°
2026-04-22 17:04 -0.04965 32.32318 38892 ft 463 kts 48°
2026-04-22 17:05 -0.00662 32.37131 38916 ft 463 kts 48°
2026-04-22 17:05 0.03615 32.41914 38914 ft 464 kts 48°
2026-04-22 17:06 0.07975 32.46669 38912 ft 464 kts 46°
2026-04-22 17:06 0.12509 32.51262 38907 ft 464 kts 45°
2026-04-22 17:07 0.17061 32.55841 38884 ft 464 kts 45°
2026-04-22 17:07 0.21595 32.60448 38856 ft 464 kts 45°
2026-04-22 17:08 0.26087 32.65038 38844 ft 464 kts 45°
2026-04-22 17:08 0.30600 32.69655 38822 ft 464 kts 45°
2026-04-22 17:09 0.35118 32.74276 38819 ft 464 kts 45°
2026-04-22 17:09 0.39601 32.78859 38822 ft 463 kts 45°
2026-04-22 17:10 0.44124 32.83484 38819 ft 463 kts 45°
2026-04-22 17:10 0.48638 32.88098 38815 ft 464 kts 45°
2026-04-22 17:11 0.53115 32.92676 38815 ft 464 kts 45°
2026-04-22 17:11 0.57638 32.97301 38814 ft 464 kts 45°
2026-04-22 17:12 0.62123 33.01887 38810 ft 464 kts 45°
2026-04-22 17:12 0.66636 33.06502 38815 ft 464 kts 45°
2026-04-22 17:13 0.71165 33.11134 38810 ft 464 kts 45°
2026-04-22 17:13 0.75665 33.15736 38809 ft 464 kts 45°
2026-04-22 17:14 0.80182 33.20356 38807 ft 464 kts 45°
2026-04-22 17:14 0.84676 33.24948 38806 ft 465 kts 46°
2026-04-22 17:15 0.89212 33.29576 38808 ft 465 kts 46°
2026-04-22 17:15 0.93743 33.34201 38810 ft 465 kts 46°
2026-04-22 17:16 0.98243 33.38796 38807 ft 465 kts 46°
2026-04-22 17:16 1.02778 33.43427 38807 ft 465 kts 46°
2026-04-22 17:17 1.07312 33.48058 38807 ft 465 kts 46°
2026-04-22 17:17 1.11814 33.52657 38807 ft 465 kts 46°
2026-04-22 17:18 1.16349 33.57289 38805 ft 465 kts 46°
2026-04-22 17:18 1.20883 33.61921 38800 ft 465 kts 46°
2026-04-22 17:19 1.29918 33.71152 38806 ft 465 kts 46°
2026-04-22 17:20 1.38981 33.80411 38803 ft 466 kts 46°
2026-04-22 17:21 1.45755 33.87333 38808 ft 466 kts 45°
2026-04-22 17:22 1.52557 33.94284 38801 ft 466 kts 45°
2026-04-22 17:23 1.59342 34.01219 38800 ft 466 kts 45°
2026-04-22 17:23 1.66121 34.08148 38802 ft 466 kts 45°
2026-04-22 17:24 1.70663 34.12792 38801 ft 466 kts 45°
2026-04-22 17:24 1.75165 34.17395 38802 ft 465 kts 45°
2026-04-22 17:25 1.79706 34.22039 38801 ft 465 kts 45°
2026-04-22 17:25 1.83450 34.25913 38802 ft 465 kts 47°
2026-04-22 17:26 1.88390 34.31602 38805 ft 466 kts 49°
2026-04-22 17:26 1.91866 34.35729 38810 ft 466 kts 49°
2026-04-22 17:27 1.96069 34.40679 38809 ft 466 kts 49°
2026-04-22 17:27 2.00286 34.45603 38813 ft 466 kts 49°
2026-04-22 17:28 2.04493 34.50503 38816 ft 466 kts 49°
2026-04-22 17:28 2.08689 34.55390 38810 ft 466 kts 49°
2026-04-22 17:29 2.12955 34.60361 38812 ft 466 kts 49°
2026-04-22 17:29 2.17155 34.65258 38815 ft 466 kts 49°
2026-04-22 17:30 2.21376 34.70178 38818 ft 466 kts 49°
2026-04-22 17:30 2.25602 34.75105 38812 ft 466 kts 49°
2026-04-22 17:31 2.29795 34.79994 38817 ft 466 kts 49°
2026-04-22 17:31 2.34014 34.84915 38813 ft 465 kts 49°
2026-04-22 17:32 2.38233 34.89837 38811 ft 465 kts 49°
2026-04-22 17:32 2.42430 34.94733 38808 ft 465 kts 49°
2026-04-22 17:33 2.46774 34.99563 38792 ft 465 kts 44°
2026-04-22 17:33 2.50941 35.03587 38791 ft 465 kts 43°
2026-04-22 17:34 2.54388 35.06834 38777 ft 465 kts 43°
2026-04-22 17:34 2.59083 35.11299 38773 ft 465 kts 43°
2026-04-22 17:35 2.63735 35.15778 38767 ft 465 kts 43°
2026-04-22 17:35 2.68398 35.20289 38755 ft 466 kts 44°
2026-04-22 17:36 2.73068 35.24805 38756 ft 466 kts 44°
2026-04-22 17:36 2.77702 35.29285 38754 ft 466 kts 43°
2026-04-22 17:37 2.82373 35.33802 38746 ft 466 kts 44°
2026-04-22 17:37 2.87036 35.38310 38740 ft 466 kts 43°
2026-04-22 17:38 2.91248 35.42383 38723 ft 466 kts 43°
2026-04-22 17:38 2.96021 35.46999 38712 ft 466 kts 43°
2026-04-22 17:39 3.00691 35.51517 38702 ft 467 kts 44°
2026-04-22 17:40 3.07685 35.58284 38692 ft 467 kts 44°
2026-04-22 17:40 3.12685 35.62406 38703 ft 466 kts 28°
2026-04-22 17:41 3.18408 35.65442 38691 ft 466 kts 26°
2026-04-22 17:41 3.24163 35.68370 38698 ft 467 kts 26°
2026-04-22 17:42 3.29966 35.71374 38707 ft 468 kts 26°
2026-04-22 17:42 3.35742 35.74404 38715 ft 469 kts 26°
2026-04-22 17:43 3.41511 35.77442 38730 ft 470 kts 26°
2026-04-22 17:43 3.47313 35.80498 38738 ft 470 kts 26°
2026-04-22 17:44 3.53121 35.83554 38724 ft 470 kts 26°
2026-04-22 17:44 3.58886 35.86589 38730 ft 470 kts 27°
2026-04-22 17:45 3.63724 35.89135 38730 ft 470 kts 26°
2026-04-22 17:45 3.70471 35.92687 38736 ft 470 kts 27°
2026-04-22 17:46 3.75759 35.95471 38730 ft 470 kts 26°
2026-04-22 17:46 3.81623 35.98559 38737 ft 470 kts 26°
2026-04-22 17:47 3.87434 36.01620 38731 ft 470 kts 26°
2026-04-22 17:47 3.93188 36.04651 38728 ft 470 kts 26°
2026-04-22 17:48 3.98031 36.07203 38726 ft 469 kts 26°
2026-04-22 17:48 4.04759 36.10745 38728 ft 469 kts 26°
2026-04-22 17:49 4.10529 36.13778 38732 ft 468 kts 26°
2026-04-22 17:49 4.16265 36.16795 38726 ft 468 kts 26°
2026-04-22 17:50 4.22045 36.19837 38732 ft 468 kts 26°
2026-04-22 17:50 4.27820 36.22876 38729 ft 467 kts 26°
2026-04-22 17:51 4.33573 36.25906 38728 ft 467 kts 26°
2026-04-22 17:51 4.39296 36.28919 38735 ft 466 kts 26°
2026-04-22 17:52 4.45047 36.31948 38740 ft 466 kts 26°
2026-04-22 17:52 4.50759 36.34957 38747 ft 466 kts 26°
2026-04-22 17:53 4.56517 36.37991 38748 ft 466 kts 26°
2026-04-22 17:53 4.62225 36.40998 38749 ft 466 kts 26°
2026-04-22 17:54 4.67986 36.44035 38759 ft 465 kts 26°
2026-04-22 17:54 4.73678 36.47036 38755 ft 465 kts 26°
2026-04-22 17:55 4.78477 36.49566 38764 ft 465 kts 26°
2026-04-22 17:55 4.85150 36.53085 38780 ft 465 kts 26°
2026-04-22 17:56 4.90845 36.56089 38780 ft 465 kts 26°
2026-04-22 17:56 4.96576 36.59112 38786 ft 464 kts 26°
2026-04-22 17:57 5.02306 36.62136 38800 ft 464 kts 26°
2026-04-22 17:57 5.08016 36.65150 38800 ft 464 kts 26°
2026-04-22 17:58 5.13705 36.68152 38806 ft 464 kts 26°
2026-04-22 17:58 5.19415 36.71167 38808 ft 463 kts 26°
2026-04-22 17:59 5.25134 36.74188 38805 ft 463 kts 26°
2026-04-22 17:59 5.30842 36.77202 38811 ft 463 kts 26°
2026-04-22 18:00 5.35587 36.79710 38820 ft 463 kts 26°
2026-04-22 18:00 5.42223 36.83216 38824 ft 462 kts 26°
2026-04-22 18:01 5.47878 36.86205 38827 ft 462 kts 26°
2026-04-22 18:01 5.53570 36.89214 38835 ft 462 kts 26°
2026-04-22 18:02 5.59263 36.92225 38837 ft 462 kts 26°
2026-04-22 18:02 5.64954 36.95234 38854 ft 462 kts 26°
2026-04-22 18:03 5.70617 36.98230 38863 ft 462 kts 26°
2026-04-22 18:03 5.76325 37.01250 38867 ft 463 kts 26°
2026-04-22 18:04 5.82030 37.04269 38874 ft 463 kts 26°
2026-04-22 18:04 5.87701 37.07271 38870 ft 463 kts 26°
2026-04-22 18:05 5.93421 37.10301 38875 ft 464 kts 26°
2026-04-22 18:05 5.99142 37.13330 38881 ft 464 kts 26°
2026-04-22 18:06 6.04823 37.16340 38889 ft 463 kts 26°
2026-04-22 18:06 6.10544 37.19371 38892 ft 464 kts 26°
2026-04-22 18:07 6.15301 37.21893 38891 ft 464 kts 26°
2026-04-22 18:07 6.21955 37.25420 38893 ft 464 kts 26°
2026-04-22 18:08 6.27636 37.28432 38892 ft 464 kts 26°
2026-04-22 18:08 6.33370 37.31474 38881 ft 464 kts 26°
2026-04-22 18:09 6.39058 37.34492 38881 ft 464 kts 26°
2026-04-22 18:09 6.44768 37.37522 38879 ft 464 kts 26°
2026-04-22 18:10 6.50478 37.40552 38888 ft 464 kts 26°
2026-04-22 18:10 6.56216 37.43599 38886 ft 466 kts 26°
2026-04-22 18:11 6.61922 37.46629 38889 ft 466 kts 26°
2026-04-22 18:11 6.67675 37.49685 38880 ft 467 kts 26°
2026-04-22 18:12 6.73431 37.52744 38873 ft 468 kts 26°
2026-04-22 18:12 6.78200 37.55279 38870 ft 469 kts 26°
2026-04-22 18:13 6.84949 37.58867 38884 ft 469 kts 26°
2026-04-22 18:13 6.90693 37.61921 38875 ft 469 kts 26°
2026-04-22 18:14 6.96479 37.64999 38877 ft 469 kts 26°
2026-04-22 18:14 7.02211 37.68050 38897 ft 468 kts 26°
2026-04-22 18:15 7.07970 37.71115 38892 ft 467 kts 26°
2026-04-22 18:15 7.13690 37.74160 38892 ft 466 kts 26°
2026-04-22 18:16 7.19440 37.77222 38897 ft 466 kts 26°
2026-04-22 18:16 7.24216 37.79766 38904 ft 466 kts 26°
2026-04-22 18:17 7.30888 37.83322 38905 ft 466 kts 26°
2026-04-22 18:17 7.35660 37.85865 38909 ft 466 kts 26°
2026-04-22 18:18 7.41394 37.88921 38914 ft 466 kts 26°
2026-04-22 18:18 7.47132 37.91982 38917 ft 466 kts 26°
2026-04-22 18:19 7.52842 37.95028 38918 ft 466 kts 26°
2026-04-22 18:19 7.58575 37.98087 38931 ft 466 kts 26°
2026-04-22 18:20 7.64288 38.01137 38916 ft 466 kts 25°
2026-04-22 18:20 7.69727 38.04041 38931 ft 465 kts 25°